Location: BAF
(53.9483°N, 27.7497°E)
Time: 23:37:26
(UTC+02:00)

ISS - Pass Details

Date: 30 November 2020
Orbit: 418 x 419 km, 51.6° (Epoch: 16 January)

Event Time Altitude Azimuth Distance (km) Brightness Sun altitude
Rises 17:31:13 0° 261° (W) 2,366 1.9 -13.7°
Reaches altitude 10° 17:33:20 10° 257° (WSW) 1,502 0.5 -14.0°
Maximum altitude 17:36:39 58° 178° (S) 493 -3.4 -14.4°
Enters shadow 17:38:19 26° 107° (ESE) 869 -2.6 -14.7°
